Regional Weather Roundup
Issued by NWS Cleveland, OH

Home | Current Version | Previous Version | Graphics & Text | Print | Product List | Glossary On
Versions: 1 2 3 4 5 6 7 8 9 10 11 12 13 14 15 16 17 18 19 20 21 22 23 24 25 26 27 28 29 30 31 32 33 34 35 36 37 38 39 40 41 42 43 44 45 46 47 48 49 50
000
ASUS41 KCLE 292102
RWRCLE
OHIO REGIONAL WEATHER ROUNDUP
NATIONAL WEATHER SERVICE CLEVELAND, OH
500 PM EDT FRI AUG 29 2014

NOTE: "FAIR" INDICATES FEW OR NO CLOUDS BELOW 12,000 FEET WITH NO
SIGNIFICANT WEATHER AND/OR OBSTRUCTIONS TO VISIBILITY.

OHZ001>008-015>018-024>027-034-035-043-044-292200-
   NORTHWEST OHIO

CITY           SKY/WX    TMP DP  RH WIND       PRES   REMARKS
DEFIANCE       MOSUNNY   84  65  52 SE6       30.02F
FINDLAY        SUNNY     83  64  52 S9        30.03F
TOLEDO EXPRESS MOSUNNY   82  62  50 E8        30.03F
TOLEDO EXEC    SUNNY     82  60  47 SE10      30.05F
LIMA           SUNNY     83  66  56 SE8       30.04F
$$

OHZ009>014-019>023-028>033-038-089-292200-
   NORTHEAST OHIO

CITY           SKY/WX    TMP DP  RH WIND       PRES   REMARKS
CLE-HOPKINS    PTSUNNY   79  55  43 S8        30.09F
CLE-LAKEFRONT  PTSUNNY   75  58  55 NE10      30.07F
CUY CO. ARPT   PTSUNNY   79  57  47 SE9       30.10S
LORAIN-ELYRIA  MOSUNNY   82  54  37 S6        30.08F
ASHTABULA      SUNNY     76  51  41 VRB5      30.11F
AKRON-CANTON   PTSUNNY   80  47  31 E7        30.09F
WOOSTER        SUNNY     79  57  46 S6        30.10F
MANSFIELD      SUNNY     80  57  45 S7        30.10S
YOUNGSTOWN     PTSUNNY   76  49  38 SE3       30.12F
$$

OHZ042-051>053-060>062-070>072-077>081-292200-
  SOUTHWEST OHIO

CITY           SKY/WX    TMP DP  RH WIND       PRES   REMARKS
CINC-COVINGTON MOSUNNY   88  68  51 S8        30.00F HX  91
CINC-LUNKEN    SUNNY     88  68  51 VRB3      29.99F HX  91
HAMILTON       MOSUNNY   90  69  50 VRB3      30.00F HX  94
DAYTON         SUNNY     85  65  51 S12       30.04F
WRIGHT-PAT AFB SUNNY     85  66  52 SE10      30.03F
DAYTON GENERAL SUNNY     84  67  56 SE7       30.02F
WILMINGTON     SUNNY     83  64  52 SE5       30.04F
$$

OHZ036-037-039>041-045>050-054>059-063>069-073>076-082>088-292200-
  CENTRAL AND SOUTHEAST OHIO

CITY           SKY/WX    TMP DP  RH WIND       PRES   REMARKS
COLUMBUS       MOSUNNY   86  57  37 SE6       30.05F
OSU AIRPORT    SUNNY     84  59  42 E7        30.05F
BOLTON FIELD   SUNNY     82  66  57 S5        30.06F
RICKENBACK AFB SUNNY     87  51  28 S5        30.04F
NEWARK         SUNNY     82  59  45 E3        30.06F
MARION         SUNNY     81  61  50 S6        30.07F
LANCASTER      SUNNY     84  62  47 E9        30.05F
ZANESVILLE     SUNNY     82  56  40 VRB6      30.08F
NEW PHILLY     MOSUNNY   79  58  48 SE5       30.10S
$$


USA.gov is the U.S. government's official web portal to all federal, state and local government web resources and services.